Location: N�rnberg
(49.4471°N, 11.0632°E)
Time: 21:22:04
(UTC+02:00)

VELOX 1 - Pass Details

Date: 20 April 2026
Orbit: 569 x 580 km, 98.3° (Epoch: 13 May)

Event Time Altitude Azimuth Distance (km) Brightness Sun altitude
Rises 00:48:47 0° 13° (NNE) 2,785 ? -28.8°
Reaches altitude 10° 00:50:56 10° 12° (NNE) 1,882 ? -28.9°
Enters shadow 00:53:27 37° 7° (N) 905 ? -28.9°
